LEMUR-2-HIMOMANDDAD (44860 NORAD) Tracking and Keplerian Element Data

This shows tracking and keplerian element data for the satellite.

Feedback or suggestion? Click here.




ElementValue
Catalog44860
NameLEMUR-2-HIMOMANDDAD
Epoch Orbit558
Epoch Day17.76506488
Epoch Year2020
RAAN274.857
Inclination36.9688
Eccentricity0.0007678
Argument of Perigee267.3663
Mean Anonmoly92.6208
Mean Motion14.98577496
Decay Rate5.56E-06
L11 44860U 19089J 20017.76506488 .00000556 00000-0 51993-4 0 9990
L22 44860 36.9688 274.8570 0007678 267.3663 92.6208 14.98577496 5583

Live tracking and technical data element details for LEMUR-2-HIMOMANDDAD (NORAD 44860). LEMUR-2-HIMOMANDDAD can be tracked NOW for your location showing map with azimuth and elevation plus other details from your city location.

Track the satellite on the map from your city or location and see movement details for azimuth, elevation, latitude, longitude, range, height, and movement on the map or in text.







IsCatalogInMostPopularTable: catalog: 44860, numindb: 8
Update: records affected: 1



GetName: 44860 LEMUR-2-HIMOMANDDAD

Hit Count: updated at: Sat, 18 Jan 2020 16:58:30 GMT